Weather History for KLLQ - September, 2013

Change the Weather History Date:

Sunday, September 8, 2013

  Actual Average Record
Temperature  
Mean Temperature 88 °F -  
Max Temperature 100 °F 89 °F - (-1)
Min Temperature 75 °F 65 °F - (-1)
Cooling Degree Days 22    
Growing Degree Days 38 (Base 50)    
Moisture  
Dew Point 64 °F    
Average Humidity 49    
Maximum Humidity 71    
Minimum Humidity 28    
Precipitation  
Precipitation 0.00 in - - ()
Sea Level Pressure  
Sea Level Pressure 29.94 in    
Wind  
Wind Speed 4 mph (SW)    
Max Wind Speed 10 mph    
Max Gust Speed -    
Visibility 10 miles    
Events Rain    
Averages and records for this station are not official NWS values.
T = Trace of Precipitation, MM = Missing Value Source: NWS Daily Summary

Daily Weather History Graph

Daily Weather History Graph

Search for Another Location

Airport or City:

Trip Planner

Search our weather history database for the weather conditions in past years. The results will help you decide how hot, cold, wet, or windy it might be!

Date:

Astronomy

Sep. 08, 2013 Rise Set
Actual Time 6:45 AM CDT 7:22 PM CDT
Civil Twilight 6:20 AM CDT 7:47 PM CDT
Nautical Twilight 5:51 AM CDT 8:17 PM CDT
Astronomical Twilight 5:20 AM CDT 8:47 PM CDT
Moon 9:51 AM CDT (9/8) 9:11 PM CDT (9/8)
Length of Visible Light 13h 27m
Length of Day
12h 36m
Waxing Crescent, 11% of the Moon is Illuminated
Sep 8
Waxing Crescent
Sep 12
First Quarter
Sep 19
Full
Sep 26
Last Quarter
Oct 4
New

Hourly Weather History & Observations

Time (CDT) Temp. Heat Index Dew Point Humidity Pressure Visibility Wind Dir Wind Speed Gust Speed Precip Events Conditions
12:53 AM 82.9 °F 85.0 °F 66.0 °F 56% 29.97 in 10.0 mi SSW 5.8 mph - 0.00 in Rain Light Rain
1:53 AM 82.9 °F 85.0 °F 66.0 °F 56% 29.96 in 10.0 mi SSW 3.5 mph - 0.00 in   Clear
2:53 AM 77.0 °F - 66.0 °F 69% 29.94 in 10.0 mi Calm Calm - N/A   Clear
3:53 AM 77.0 °F - 66.0 °F 69% 29.96 in 10.0 mi Calm Calm - 0.00 in Rain Light Rain
4:53 AM 77.0 °F - 66.0 °F 69% 29.95 in 10.0 mi Calm Calm - 0.00 in   Clear
5:53 AM 78.1 °F - 66.0 °F 66% 29.95 in 10.0 mi West 6.9 mph - N/A   Clear
6:53 AM 75.9 °F - 66.0 °F 71% 29.97 in 10.0 mi West 6.9 mph - N/A   Clear
7:53 AM 78.1 °F - 66.0 °F 66% 29.98 in 10.0 mi West 5.8 mph - N/A   Clear
8:53 AM 84.0 °F 86.5 °F 66.9 °F 56% 29.98 in 10.0 mi West 6.9 mph - N/A   Clear
9:53 AM 88.0 °F 90.7 °F 66.9 °F 49% 29.99 in 10.0 mi West 10.4 mph - N/A   Clear
10:53 AM 91.0 °F 93.0 °F 64.9 °F 42% 29.99 in 10.0 mi West 8.1 mph - 0.00 in   Clear
11:53 AM 93.9 °F 95.6 °F 64.0 °F 37% 29.98 in 10.0 mi Variable 3.5 mph - N/A   Clear
12:53 PM 96.1 °F 97.3 °F 63.0 °F 33% 29.96 in 10.0 mi Calm Calm - N/A   Scattered Clouds
1:53 PM 98.1 °F 98.6 °F 61.0 °F 29% 29.94 in 10.0 mi Calm Calm - N/A   Scattered Clouds
2:53 PM 100.9 °F 102.7 °F 62.1 °F 28% 29.91 in 10.0 mi Variable 6.9 mph - N/A   Mostly Cloudy
3:53 PM 97.0 °F 97.8 °F 62.1 °F 31% 29.90 in 10.0 mi Variable 5.8 mph - N/A   Clear
4:53 PM 99.0 °F 100.5 °F 62.1 °F 30% 29.88 in 10.0 mi East 9.2 mph - N/A   Mostly Cloudy
5:53 PM 97.0 °F 98.3 °F 63.0 °F 32% 29.88 in 10.0 mi SE 8.1 mph - N/A   Clear
6:53 PM 93.9 °F 94.8 °F 62.1 °F 35% 29.89 in 10.0 mi SE 4.6 mph - N/A   Clear
7:53 PM 91.0 °F 91.9 °F 63.0 °F 39% 29.90 in 10.0 mi Calm Calm - N/A   Clear
8:53 PM 84.9 °F 86.1 °F 64.0 °F 49% 29.92 in 10.0 mi Calm Calm - N/A   Clear
9:53 PM 84.0 °F 85.8 °F 64.9 °F 53% 29.94 in 10.0 mi South 3.5 mph - N/A   Clear
10:53 PM 84.9 °F 85.9 °F 63.0 °F 48% 29.95 in 10.0 mi South 4.6 mph - N/A   Clear
11:53 PM 82.9 °F 84.4 °F 64.0 °F 53% 29.95 in 10.0 mi South 4.6 mph - N/A   Clear